This is the latest recevied weather packets stored in our database for station/object KC5TIL-3. If no packets are shown the sender has not sent any weather packets the latest 10 day(s).
| Time | Temp. | Humidity | Pressure | Rain* | Wind** | Luminosity | Snow |
|---|---|---|---|---|---|---|---|
| 1787632561 | 34.44° C | 11% | 1010.8 hPa | 0 mm | 3.13 m/s, 212° | - | - |
| 1787632263 | 34.44° C | 11% | 1010.8 hPa | 0 mm | 3.13 m/s, 157° | - | - |
| 1787631962 | 34.44° C | 11% | 1010.8 hPa | 0 mm | 3.13 m/s, 199° | - | - |
| 1787631664 | 35° C | 11% | 1010.8 hPa | 0 mm | 4.02 m/s, 165° | - | - |
| 1787631366 | 35° C | 11% | 1010.8 hPa | 0 mm | 3.58 m/s, 211° | - | - |
| 1787631064 | 35° C | 11% | 1010.8 hPa | 0 mm | 3.13 m/s, 166° | - | - |
| 1787630761 | 35° C | 11% | 1010.8 hPa | 0 mm | 3.58 m/s, 192° | - | - |
| 1787630463 | 35° C | 11% | 1010.8 hPa | 0 mm | 3.58 m/s, 136° | - | - |
| 1787630162 | 35° C | 11% | 1010.8 hPa | 0 mm | 3.58 m/s, 193° | - | - |
| 1787629863 | 35° C | 11% | 1010.8 hPa | 0 mm | 2.68 m/s, 144° | - | - |
| 1787629565 | 35° C | 11% | 1010.8 hPa | 0 mm | 3.13 m/s, 229° | - | - |
| 1787629259 | 35.56° C | 11% | 1010.8 hPa | 0 mm | 3.58 m/s, 220° | - | - |
| 1787628961 | 35.56° C | 11% | 1010.8 hPa | 0 mm | 3.58 m/s, 192° | - | - |
| 1787628663 | 35.56° C | 11% | 1010.8 hPa | 0 mm | 3.13 m/s, 159° | - | - |
| 1787628353 | 35.56° C | 11% | 1010.8 hPa | 0 mm | 3.13 m/s, 131° | - | - |
| 1787628054 | 35.56° C | 11% | 1010.8 hPa | 0 mm | 3.58 m/s, 163° | - | - |
| 1787627756 | 35.56° C | 11% | 1010.8 hPa | 0 mm | 2.68 m/s, 195° | - | - |
| 1787627455 | 35.56° C | 11% | 1010.8 hPa | 0 mm | 3.58 m/s, 233° | - | - |
| 1787627157 | 35.56° C | 11% | 1010.8 hPa | 0 mm | 3.13 m/s, 146° | - | - |
| 1787626858 | 35.56° C | 11% | 1009.8 hPa | 0 mm | 4.02 m/s, 195° | - | - |
| 1787626557 | 35.56° C | 11% | 1009.8 hPa | 0 mm | 3.13 m/s, 216° | - | - |
| 1787626259 | 35.56° C | 11% | 1009.8 hPa | 0 mm | 3.13 m/s, 196° | - | - |
| 1787625961 | 35.56° C | 11% | 1009.8 hPa | 0 mm | 2.24 m/s, 210° | - | - |
| 1787625659 | 35.56° C | 11% | 1009.8 hPa | 0 mm | 2.68 m/s, 189° | - | - |
| 1787625361 | 35.56° C | 11% | 1009.8 hPa | 0 mm | 3.13 m/s, 134° | - | - |
* Rain latest hour (hover to see other rain measurements)
** Current wind speed in m/s (hover to see current wind gust speed)